This is the latest recevied weather packets stored in our database for station/object NG7N. If no packets are shown the sender has not sent any weather packets the latest 1 day(s).
| Time | Temp. | Humidity | Pressure | Rain* | Wind** | Luminosity | Snow |
|---|---|---|---|---|---|---|---|
| 1778043268 | 14.44° C | 82% | 1015.7 hPa | 0 mm | 0.45 m/s, 188° | - | - |
| 1778042967 | 14.44° C | 82% | 1015.7 hPa | 0 mm | 0.89 m/s, 175° | - | - |
| 1778042368 | 15° C | 81% | 1015.7 hPa | 0 mm | 0.89 m/s, 184° | - | - |
| 1778040867 | 15° C | 81% | 1015.7 hPa | 0 mm | 1.34 m/s, 169° | - | - |
| 1778039968 | 15° C | 80% | 1015.6 hPa | 0 mm | 0.45 m/s, 163° | - | - |
| 1778039068 | 15.56° C | 79% | 1015.4 hPa | 0 mm | 0.89 m/s, 160° | - | - |
| 1778038168 | 15.56° C | 78% | 1015.2 hPa | 0 mm | 0.45 m/s, 231° | - | - |
| 1778037568 | 16.11° C | 76% | 1015.2 hPa | 0 mm | 0 m/s | - | - |
| 1778036967 | 16.67° C | 75% | 1015.2 hPa | 0 mm | 0 m/s | - | - |
| 1778035768 | 17.22° C | 74% | 1015.1 hPa | 0 mm | 0 m/s | - | - |
| 1778033967 | 17.22° C | 72% | 1015.1 hPa | 0 mm | 0.89 m/s, 156° | - | - |
| 1778033067 | 17.22° C | 73% | 1015.1 hPa | 0 mm | 0.45 m/s, 154° | - | - |
| 1778032767 | 17.22° C | 72% | 1015.2 hPa | 0 mm | 0.89 m/s, 152° | - | - |
| 1778032167 | 17.22° C | 71% | 1015.2 hPa | 0 mm | 0.89 m/s, 146° | - | - |
| 1778031867 | 17.22° C | 71% | 1015.2 hPa | 0 mm | 1.34 m/s, 148° | - | - |
| 1778030967 | 17.22° C | 71% | 1015.2 hPa | 0 mm | 1.34 m/s, 171° | - | - |
| 1778028568 | 17.22° C | 73% | 1015.2 hPa | 0 mm | 0.89 m/s, 173° | - | - |
| 1778027367 | 17.22° C | 73% | 1015.4 hPa | 0 mm | 2.24 m/s, 149° | - | - |
| 1778025868 | 17.22° C | 73% | 1015.6 hPa | 0 mm | 0.45 m/s, 207° | - | - |
| 1778025569 | 16.67° C | 74% | 1015.6 hPa | 0 mm | 1.79 m/s, 171° | - | - |
| 1778023768 | 17.22° C | 73% | 1015.8 hPa | 0 mm | 0.89 m/s, 121° | - | - |
| 1778023167 | 16.67° C | 73% | 1015.8 hPa | 0 mm | 1.34 m/s, 155° | - | - |
| 1778021967 | 16.67° C | 75% | 1016.1 hPa | 0 mm | 2.24 m/s, 154° | - | - |
| 1778019567 | 16.11° C | 74% | 1016.2 hPa | 0 mm | 3.13 m/s, 133° | - | - |
| 1778018667 | 16.11° C | 74% | 1016.3 hPa | 0 mm | 1.79 m/s, 138° | - | - |
* Rain latest hour (hover to see other rain measurements)
** Current wind speed in m/s (hover to see current wind gust speed)